Location: B?ogocice
(50.2413°N, 20.2361°E)
Time: 03:39:36
(UTC+00:00)

Cosmos 2082 - Visible Passes

Search period start: 12 September 2024 00:00
Search period end: 22 September 2024 00:00
Orbit: 831 x 856 km, 71.0° (Epoch: 11 September)

Date Brightness Start Highest point End Pass type
(mag) Time Alt. Az. Time Alt. Az. Time Alt. Az.
14 Sep 7.0 03:37:17 10° ESE 03:39:12 12° E 03:41:08 10° ENE visible
15 Sep 7.0 03:23:07 10° ESE 03:24:43 11° E 03:26:19 10° ENE visible
16 Sep 7.0 03:09:03 10° ESE 03:10:14 11° E 03:11:27 10° E visible
17 Sep 7.1 02:55:16 10° E 02:55:46 10° E 02:56:16 10° E visible
20 Sep 4.6 03:49:35 10° S 03:55:06 54° ESE 04:00:40 10° NE visible
21 Sep 4.6 03:35:06 10° S 03:40:35 52° ESE 03:46:07 10° NE visible
